STARLINK-4040

operational
NORAD ID: 53151 Int'l Des: 2022-083 Owner: SPXS Country: US Constellation: starlink
LEOCIRCULAR

Über STARLINK-4040

Beschreibung wird geladen...

Live-Position

3D-Globus wird geladen...

Nächste Überflüge

Höhenverlauf

Altitude vs Time

uPlot chart will show altitude changes over time

Zweizeiliger Elementsatz

1 53151U 22083V 25251.30930863 -.00000534 00000-0 -15491-4 0 9995
2 53151 53.2163 262.8600 0001281 86.8345 273.2794 15.08840752173822
Epoch: 8. Sept. 2025 • Age: 27 hours

Aktueller Status

Höhe 552.0 km
Geschwindigkeit 7.59 km/s
Subsatellitenpunkt -36.15°S, 82.62°E
Startdatum 17. Juli 2022
Alter 3.1 years
Typ internet

Technische Details

Klassifizierung Payload
Masse 297.00 kg
Trockenmasse 275.00 kg
Gesamtmasse 297.00 kg
Länge 0.20 m
Durchmesser 2.80 m
Spannweite 9.00 m
Form Box + pan
Hersteller SPXS
Bus-Typ Starlink
Phasenstatus In Orbit
Besitzer/Staat SPXS/US

Große Konstellationen

Loading constellations...